Location: Csohesd
(46.2500°N, 22.6167°E)
Time: 11:40:00
(UTC+00:00)

SMAP - Pass Details

Date: 21 October 2021
Orbit: 681 x 683 km, 98.1° (Epoch: 07 December)

Event Time Altitude Azimuth Distance (km) Brightness Sun altitude
Rises 16:09:06 0° 176° (S) 3,032 6.5 -7.0°
Reaches altitude 10° 16:11:22 10° 181° (S) 2,122 5.7 -7.4°
Maximum altitude 16:15:55 56° 259° (W) 817 3.9 -8.2°
Drops below altitude 10° 16:20:32 10° 338° (NNW) 2,139 5.8 -9.0°
Sets 16:22:50 0° 343° (NNW) 3,059 6.6 -9.4°
